Погода в Рощине

Россия / Пензенская область     52°28′52″N   44°08′22″E
темп.,
°C
ветер,
м/с
пор.,
м/с
влажн.,
%
обл.,
%
осадки,
мм/ч
давл.,
гПа
погр.,
м
22 апреля, чт
чт2200:00+6ю389079 0.0 1018160
03:00+5ю49935 0.0 1019176
06:00+6ю36925 0.0 1020141
09:00+11ююз57685 0.0 1021734
12:00+13юз795743 0.6 10211788
15:00+14зюз5749100 0.8 10212181
18:00+12з116696 0.0 102224
21:00+9ююз11715 0.0 102310
23 апреля, пт
пт2300:00+8юв11725 0.0 102310
03:00+7юв337524 0.0 102321
06:00+7вюв3578100 0.0 102373
09:00+12вюв456898 0.0 1022268
12:00+15юв4448100 0.0 10211665
15:00+14ююв4555100 1.3 10201044
18:00+12ююз2471100 0.6 1019186
21:00+9ююз2285100 0.7 101822
24 апреля, сб
сб2400:00+8ююз118760 0.0 101613
03:00+7ююв228836 0.0 101413
06:00+8юв368986 0.0 1013184
09:00+11ююв5778100 0.1 1011692
12:00+14ююз6862100 2.6 10091334
15:00+7з6987100 3.6 1010594
18:00+8з5770100 0.0 10111167
21:00+6юз4107970 0.1 1011253
25 апреля, вс
вс2500:00+4зюз589383 0.9 1011590
03:00+3зюз6119083 0.9 1011383
06:00+3зюз81282100 0.3 1013941
09:00+4зюз81183100 0.6 10151123
12:00+8з8105490 0.2 10161963
15:00+9з8104888 0.3 10171904
18:00+7з595578 0.6 1018717
21:00+4ююз48725 0.6 1019152
26 апреля, пн
пн2600:00+3ююз377535 0.0 1019124
03:00+2ююз47755 0.0 1019121
06:00+3ю387397 0.0 1019167
09:00+8ююз5752100 0.0 1018766
12:00+11ююз5742100 0.0 10161819
15:00+12юз4640100 0.0 10142012
18:00+10ююз3553100 0.1 1012178
21:00+7ю376994 0.4 1012166